Location: ?????????
(54.7630°N, 39.4991°E)
Time: 09:26:51
(UTC+00:00)

Cosmos 1125 Rocket - Pass Details

Date: 14 April 2026
Orbit: 752 x 776 km, 74.0° (Epoch: 19 May)

Event Time Altitude Azimuth Distance (km) Brightness Sun altitude
Exits shadow 18:55:02 14° 199° (SSW) 2,027 5.4 -18.6°
Maximum altitude 18:59:32 78° 114° (ESE) 788 3.4 -19.0°
Drops below altitude 10° 19:04:49 10° 29° (NNE) 2,323 6.3 -19.5°
Sets 19:07:12 0° 28° (NNE) 3,258 7.1 -19.7°
